星链-30224 (STARLINK-30224 )

导读 | 豆包AI

STARLINK-30224是美国太空探索技术公司(SpaceX)星链(Starlink)互联网卫星星座的组网卫星,于2023年7月20日发射入轨。星链项目旨在构建全球卫星互联网系统,该卫星的成功发射进一步扩充了星链低轨星座的规模,推进了全球高速互联网覆盖的建设进程。

Basic Information
目录编号:
57416
目录名称:
STARLINK-30224
国际标识:
2023-102N
轨道中心:
EARTH
卫星名称:
星链-30224
卫星全名:
星链-30224 (STARLINK-30224 )
卫星状态:
在轨 (已飞行1015 天)
发射日期:
2023-07-20 UTC
国别 :
美国 (US)
星等 :
--
Orbit Information
数据来源 国际轨道数据
星历时间: 2026-04-30T05:56:59+0800
19小时前
查看轨道信息
半长轴: 6861.197km
偏心率: 0.0001386
轨道倾角: 43.002°
近地点辐角 272.358°
升交点赤经 319.324°
平近点角 87.712°
近地点: 482.109km
远地点: 484.011km
周期: 94.267分钟
每日圈数: 15.275764
Detailed Information
固有亮度:
5
最大亮度:
0.3
卫星平台:
Starlink v2.0 mini
覆盖范围:
全球
运营商:
太空探索技术公司
运营商所在国:
美国
制造商(研发单位):
太空探索技术公司
制造商所在国:
美国
使用方式:
暂无
Satellite Introduction
星链(Starlink)计划是由太空探索技术公司(SpaceX)提出的一个巨型低轨卫星互联网星座项目,计划在2019年至2024年间在太空搭建由约1.2万颗卫星组成的“星链”网络,其中1584颗将部署在地球上空550千米处的近地轨道,并从2020年开始工作。该卫星仍在工作。
2D Orbit Map
3D Orbit Map
Orbit Altitude Analysis Chart
Orbit Inclination Analysis Chart
Orbit Comprehensive Analysis Chart
View Comprehensive Chart